Location: Chèvreville
(49.1099°N, 2.8495°E)
Time: 13:53:37
(UTC+00:00)

BlueWalker 3 - Pass Details

Date: 29 January 2026
Orbit: 450 x 461 km, 53.2° (Epoch: 11 February)

Event Time Altitude Azimuth Distance (km) Brightness Sun altitude
Rises 17:26:48 0° 261° (W) 2,456 7.6 -7.8°
Reaches altitude 10° 17:28:58 10° 266° (W) 1,584 6.0 -8.2°
Maximum altitude 17:32:27 54° 345° (NNW) 556 2.1 -8.7°
Enters shadow 17:35:35 13° 62° (ENE) 1,436 3.6 -9.2°
